Weather reports worldwide

Advertisment
Jackson, ky, United States of America (2072838): temperature & dewpoint: 19.05.2019 02:00:00 - 25.05.2019 02:00:00 (EDT)Jackson, ky, United States of America (2072838): wind speed & gusts: 19.05.2019 02:00:00 - 25.05.2019 02:00:00 (EDT)Jackson, ky, United States of America (2072838): wind direction: 19.05.2019 02:00:00 - 25.05.2019 02:00:00 (EDT)Jackson, ky, United States of America (2072838): reduced air pressure: 19.05.2019 02:00:00 - 25.05.2019 02:00:00 (EDT)Jackson, ky, United States of America (2072838): visibility: 19.05.2019 02:00:00 - 25.05.2019 02:00:00 (EDT)Jackson, ky, United States of America (2072838): precipitation: 19.05.2019 02:00:00 - 25.05.2019 02:00:00 (EDT)
Date & Time tt [°C] td [°C] ff [km/h] ff [kn] fx [km/h] fx [kn] dd ppp [hPa] vv [km] rr [mm]
25.05.2019 02:00:00 22,2 18,3 0 0 - - N 1017,9 16 -
25.05.2019 01:00:00 22,8 18,3 0 0 - - N 1017,8 16 -
25.05.2019 00:00:00 23,9 18,3 5 3 - - S 1017,6 16 -
24.05.2019 23:00:00 24,4 18,3 5 3 - - S 1018,2 16 -
24.05.2019 22:00:00 25,6 17,8 0 0 - - N 1018,3 16 -
24.05.2019 21:00:00 25,6 17,8 0 0 - - N 1018,8 16 -
24.05.2019 20:00:00 27,8 18,3 0 0 - - N 1019,0 16 -
24.05.2019 19:00:00 28,3 17,8 5 3 - - WSW 1019,4 16 -
24.05.2019 18:00:00 30,6 16,7 - - - - - 1019,5 16 -
24.05.2019 17:00:00 30,6 17,8 5 3 - - - 1019,2 16 -
24.05.2019 16:00:00 31,1 18,9 8 4 - - - 1019,4 16 -
24.05.2019 15:00:00 31,1 20,0 8 4 - - - 1019,5 16 -
24.05.2019 14:00:00 30,6 21,1 - - - - - 1020,2 16 -
24.05.2019 13:00:00 28,9 20,6 5 3 - - - 1020,5 16 -
24.05.2019 12:00:00 28,3 21,1 - - - - - 1020,9 16 -
24.05.2019 11:00:00 27,2 20,6 0 0 - - N 1021,0 16 -
24.05.2019 10:00:00 25,0 20,0 0 0 - - N 1021,2 16 -
24.05.2019 09:00:00 23,3 18,9 0 0 - - N 1020,9 16 -
24.05.2019 08:00:00 21,7 18,3 0 0 - - N 1020,5 16 -
24.05.2019 07:00:00 20,0 17,8 0 0 - - N 1020,2 16 -
24.05.2019 06:00:00 20,6 17,2 0 0 - - N 1019,5 16 -
24.05.2019 05:00:00 21,1 17,2 0 0 - - N 1019,1 16 -
24.05.2019 04:00:00 21,1 17,2 0 0 - - N 1018,8 16 -
24.05.2019 03:00:00 21,7 17,2 0 0 - - N 1018,9 16 -
24.05.2019 02:00:00 22,2 17,2 0 0 - - N 1019,2 16 -
24.05.2019 01:00:00 22,8 17,2 0 0 - - N 1019,6 16 -
24.05.2019 00:00:00 23,3 16,7 0 0 - - N 1019,7 16 -
23.05.2019 23:00:00 24,4 16,7 5 3 - - - 1019,5 16 -
23.05.2019 22:00:00 25,0 16,7 5 3 - - - 1018,8 16 -
23.05.2019 21:00:00 25,0 18,9 0 0 - - N 1018,9 16 -
23.05.2019 20:00:00 26,7 20,6 0 0 - - N 1018,5 16 -
23.05.2019 19:00:00 27,2 20,0 5 3 - - - 1019,0 16 -
23.05.2019 18:00:00 28,9 21,1 - - - - - 1018,8 16 -
23.05.2019 17:00:00 29,4 20,6 5 3 - - - 1019,6 16 -
23.05.2019 16:00:00 29,4 21,1 - - - - - 1019,7 16 -
23.05.2019 15:00:00 28,3 21,7 8 4 - - - 1020,4 16 -
23.05.2019 14:00:00 27,8 21,1 0 0 - - N 1021,1 16 -
23.05.2019 13:00:00 25,0 20,0 0 0 - - N 1022,2 16 0,0
23.05.2019 12:00:00 26,1 20,0 0 0 - - N 1022,2 16 -
23.05.2019 11:00:00 23,9 19,4 5 3 - - - 1022,4 16 -
23.05.2019 10:00:00 23,9 19,4 0 0 - - N 1022,2 16 -
23.05.2019 09:00:00 21,7 18,3 0 0 - - N 1022,2 16 -
23.05.2019 08:00:00 21,1 17,2 5 3 - - - 1021,4 16 -
23.05.2019 07:00:00 19,4 16,1 0 0 - - N 1020,9 16 -
23.05.2019 06:00:00 20,0 16,1 0 0 - - N 1020,1 16 -
23.05.2019 05:00:00 20,6 15,6 0 0 - - N 1019,7 16 -
23.05.2019 04:00:00 21,1 15,0 0 0 - - N 1019,0 16 -
23.05.2019 03:00:00 21,7 15,0 5 3 - - S 1019,0 16 -
23.05.2019 02:00:00 22,8 15,0 0 0 - - N 1018,7 16 -
23.05.2019 01:00:00 23,9 15,0 5 3 - - S 1018,7 16 -
23.05.2019 00:00:00 24,4 15,6 5 3 - - - 1019,0 16 -
22.05.2019 23:00:00 24,4 16,1 0 0 - - N 1019,0 16 -
22.05.2019 22:00:00 25,6 16,1 5 3 - - SSW 1018,3 16 -
22.05.2019 21:00:00 26,7 16,1 0 0 - - N 1018,0 16 -
22.05.2019 20:00:00 28,3 16,7 8 4 - - - 1017,5 16 -
22.05.2019 19:00:00 29,4 17,2 - - - - - 1017,2 16 -
22.05.2019 18:00:00 30,6 17,8 5 3 - - - 1017,3 16 -
22.05.2019 17:00:00 30,0 16,7 8 4 - - - 1017,2 16 -
22.05.2019 16:00:00 31,1 17,2 - - - - - 1017,1 16 -
22.05.2019 15:00:00 30,6 17,2 - - - - - 1017,2 16 -
22.05.2019 14:00:00 29,4 16,7 - - - - - 1017,9 16 -
22.05.2019 13:00:00 28,3 17,8 9 5 - - - 1018,2 16 -
22.05.2019 12:00:00 27,2 16,7 - - - - - 1018,1 16 -
22.05.2019 11:00:00 25,0 17,8 8 4 - - - 1017,6 16 -
22.05.2019 10:00:00 23,3 16,7 0 0 - - N 1017,6 16 -
22.05.2019 09:00:00 21,1 15,6 0 0 - - N 1017,6 16 -
22.05.2019 08:00:00 18,9 13,9 8 4 - - - 1016,6 16 -
22.05.2019 07:00:00 17,8 13,3 8 4 - - - 1016,2 16 -
22.05.2019 06:00:00 16,7 13,3 8 4 - - SSE 1016,0 16 -
22.05.2019 05:00:00 16,1 13,3 9 5 - - SE 1015,5 16 -
22.05.2019 04:00:00 15,6 13,3 5 3 - - E 1015,1 16 -
22.05.2019 03:00:00 15,6 13,3 5 3 - - - 1015,3 16 -
22.05.2019 02:00:00 16,1 12,8 - - - - - 1015,6 16 -
22.05.2019 01:00:00 16,7 12,8 5 3 - - - 1016,5 16 -
22.05.2019 00:00:00 17,2 13,3 - - - - - 1016,6 16 -
21.05.2019 23:00:00 17,8 13,3 5 3 - - - 1016,4 16 -
21.05.2019 22:00:00 18,3 13,3 0 0 - - N 1016,2 16 -
21.05.2019 21:00:00 18,9 13,9 0 0 - - N 1015,9 16 -
21.05.2019 20:00:00 21,1 13,9 0 0 - - N 1015,8 16 -
21.05.2019 19:00:00 22,2 13,9 5 3 - - - 1015,6 16 -
21.05.2019 18:00:00 22,8 13,9 0 0 - - N 1015,7 16 -
21.05.2019 17:00:00 23,9 15,6 0 0 - - N 1015,7 16 -
21.05.2019 16:00:00 22,8 14,4 8 4 - - - 1015,9 16 -
21.05.2019 15:00:00 21,7 13,9 8 4 - - - 1016,3 16 -
21.05.2019 14:00:00 20,6 13,9 0 0 - - N 1016,8 16 -
21.05.2019 13:00:00 18,9 13,3 0 0 - - N 1017,3 16 -
21.05.2019 12:00:00 17,8 12,8 5 3 - - - 1017,8 16 -
21.05.2019 11:00:00 16,1 11,7 0 0 - - N 1018,1 16 -
21.05.2019 10:00:00 15,6 11,7 5 3 - - - 1018,2 16 -
21.05.2019 09:00:00 14,4 11,1 0 0 - - N 1017,8 16 -
21.05.2019 08:00:00 12,2 10,0 5 3 - - - 1017,3 16 -
21.05.2019 07:00:00 11,1 9,4 - - - - - 1016,7 16 -
21.05.2019 06:00:00 11,7 10,0 0 0 - - N 1016,3 16 -
21.05.2019 05:00:00 12,2 10,6 0 0 - - N 1016,4 16 -
21.05.2019 04:00:00 13,3 11,1 0 0 - - N 1016,1 16 -
21.05.2019 03:00:00 14,4 11,1 0 0 - - N 1015,9 16 -
21.05.2019 02:00:00 16,1 11,1 0 0 - - N 1015,7 16 -
21.05.2019 01:00:00 17,8 11,7 0 0 - - N 1016,0 16 -
21.05.2019 00:00:00 18,3 11,7 0 0 - - N 1016,1 16 -
20.05.2019 23:00:00 18,9 11,7 0 0 - - N 1015,7 16 -
20.05.2019 22:00:00 20,0 12,2 0 0 - - N 1015,7 16 -
20.05.2019 21:00:00 21,1 11,7 5 3 - - NW 1015,5 16 -
20.05.2019 20:00:00 22,8 12,2 11 6 - - NW 1015,3 16 -
20.05.2019 19:00:00 24,4 11,7 11 6 - - NW 1015,0 16 -
20.05.2019 18:00:00 25,6 13,3 13 7 - - NW 1014,6 16 -
20.05.2019 17:00:00 26,7 12,8 - - - - - 1014,2 16 -
20.05.2019 16:00:00 26,1 13,9 8 4 - - - 1014,4 16 -
20.05.2019 15:00:00 26,1 15,6 5 3 - - - 1015,2 16 -
20.05.2019 14:00:00 25,6 15,6 8 4 - - - 1015,6 16 -
20.05.2019 13:00:00 24,4 15,6 8 4 - - - 1016,0 16 -
20.05.2019 12:00:00 23,9 16,1 5 3 - - - 1016,1 16 -
20.05.2019 11:00:00 21,7 15,0 11 6 - - - 1016,1 16 -
20.05.2019 10:00:00 21,1 15,0 9 5 - - - 1015,9 16 -
20.05.2019 09:00:00 20,6 16,1 0 0 - - N 1015,8 16 -
20.05.2019 08:00:00 20,0 16,7 0 0 - - N 1015,0 16 -
20.05.2019 07:00:00 19,4 16,1 0 0 - - N 1014,5 16 -
20.05.2019 06:00:00 20,6 15,6 8 4 - - - 1013,6 16 -
20.05.2019 05:00:00 20,6 14,4 9 5 - - - 1013,0 16 -
20.05.2019 04:00:00 21,7 14,4 0 0 - - N 1013,0 16 -
20.05.2019 03:00:00 21,1 15,0 - - - - - 1012,8 16 -
20.05.2019 02:00:00 21,7 15,0 8 4 - - - 1012,7 16 -
20.05.2019 01:00:00 21,7 15,6 - - - - - 1012,8 16 -
20.05.2019 00:00:00 22,2 15,6 5 3 - - - 1013,2 16 -
19.05.2019 23:00:00 22,8 15,0 0 0 - - N 1013,4 16 -
19.05.2019 22:00:00 22,8 15,0 5 3 - - - 1012,7 16 0,0
19.05.2019 21:00:00 22,8 15,6 13 7 - - SW 1012,9 16 0,0
19.05.2019 20:00:00 26,1 14,4 8 4 - - SSW 1011,1 16 -
19.05.2019 19:00:00 26,7 15,0 5 3 - - - 1011,0 16 -
19.05.2019 18:00:00 28,3 13,9 - - - - - 1010,9 16 -
19.05.2019 17:00:00 28,3 16,1 - - 48 26 - 1011,2 16 -
19.05.2019 16:00:00 28,3 16,1 - - - - - 1012,1 16 -
19.05.2019 15:00:00 28,3 16,1 8 4 48 26 - 1012,5 16 -
19.05.2019 14:00:00 28,3 16,7 11 6 - - - 1013,1 16 -
19.05.2019 13:00:00 27,8 15,6 - - - - - 1013,5 16 -
19.05.2019 12:00:00 27,2 17,8 9 5 - - - 1013,8 16 -
19.05.2019 11:00:00 25,6 17,8 9 5 - - S 1013,8 16 -
19.05.2019 10:00:00 23,9 17,8 8 4 - - - 1013,8 16 -
19.05.2019 09:00:00 22,2 17,8 - - - - - 1013,7 16 -
19.05.2019 08:00:00 20,6 16,7 5 3 - - - 1013,9 16 -
19.05.2019 07:00:00 19,4 16,1 0 0 - - N 1014,0 16 -
19.05.2019 06:00:00 19,4 15,6 0 0 - - N 1013,5 16 -
19.05.2019 05:00:00 19,4 15,6 5 3 - - - 1013,6 16 -
19.05.2019 04:00:00 20,6 15,0 5 3 - - - 1013,1 16 -
19.05.2019 03:00:00 20,6 15,6 5 3 - - SSW 1013,5 16 -
19.05.2019 02:00:00 21,1 15,6 0 0 - - N 1013,8 16 -

tt = temperature
td = dewpoint
ff = wind speed
fx = gusts
dd = wind direction
ppp = reduced air pressure
vv = visibility
rr = precipitation

Next stations